Location: Sungai Kamana Besar
(2.6333°N, 113.4333°E)
Time: 06:48:23
(UTC+00:00)

Meteor 1-31 Rocket - Pass Details

Date: 29 May 2022
Orbit: 516 x 542 km, 97.7° (Epoch: 28 June)

Event Time Altitude Azimuth Distance (km) Brightness Sun altitude
Rises 21:25:53 0° 13° (NNE) 2,624 6.8 -12.4°
Reaches altitude 10° 21:27:58 10° 14° (NNE) 1,742 5.9 -11.9°
Maximum altitude 21:31:42 80° 100° (E) 532 2.8 -11.1°
Drops below altitude 10° 21:35:30 10° 188° (S) 1,761 5.1 -10.2°
Sets 21:37:37 0° 189° (S) 2,656 6.0 -9.7°
